JH4GLG-13 Weather Reports


time (UTC)temp
C
wind
direction
speed
KPH
gust
KPH
rain 1hr
cm
rain 24hr
cm
rain mn
cm
humidity
%
barometer
mb
20260508095701 18 0 0.0 0.0 0.00 0.00 0.00 47 1011.9
20260508094200 18 0 0.0 0.0 0.00 0.00 0.00 46 1011.7
20260508092701 19 0 0.0 0.0 0.00 0.00 0.00 45 1010.9
20260508091200 20 0 0.0 0.0 0.00 0.00 0.00 46 1010.5
20260508085700 20 0 0.0 0.0 0.00 0.00 0.00 45 1010.3
20260508084200 21 0 0.0 0.0 0.00 0.00 0.00 41 1009.9
20260508082701 22 0 0.0 0.0 0.00 0.00 0.00 42 1009.6
20260508081159 22 0 0.0 0.0 0.00 0.00 0.00 42 1009.4
20260508075700 22 0 0.0 0.0 0.00 0.00 0.00 38 1008.9
20260508074159 23 0 0.0 0.0 0.00 0.00 0.00 40 1008.6
20260508072742 24 0 0.0 0.0 0.00 0.00 0.00 41 1008.4
20260508072701 24 0 0.0 0.0 0.00 0.00 0.00 41 1008.4
20260508071159 24 0 0.0 0.0 0.00 0.00 0.00 44 1008.2
20260508065700 25 0 0.0 0.0 0.00 0.00 0.00 46 1008.1
20260508064159 25 0 0.0 0.0 0.00 0.00 0.00 48 1007.8
20260508062745 25 0 0.0 0.0 0.00 0.00 0.00 50 1007.6
20260508062700 25 0 0.0 0.0 0.00 0.00 0.00 50 1007.6
20260508061158 24 0 0.0 0.0 0.00 0.00 0.00 52 1007.6
20260508055700 25 0 0.0 0.0 0.00 0.00 0.00 52 1007.5
20260508054159 23 0 0.0 0.0 0.00 0.00 0.00 57 1007.6
20260508052659 23 0 0.0 0.0 0.00 0.00 0.00 59 1007.6
20260508051158 22 0 0.0 0.0 0.00 0.00 0.00 60 1007.9
20260508045658 22 0 0.0 0.0 0.00 0.00 0.00 63 1007.8
20260508044158 22 0 0.0 0.0 0.00 0.00 0.00 64 1007.9
20260508042659 22 0 0.0 0.0 0.00 0.00 0.00 65 1007.9
20260508041157 22 0 0.0 0.0 0.00 0.00 0.00 66 1008.0
20260508035659 22 0 0.0 0.0 0.00 0.00 0.00 66 1008.1
20260508034158 22 0 0.0 0.0 0.00 0.00 0.00 67 1007.9
20260508032658 23 0 0.0 0.0 0.00 0.00 0.00 63 1007.7
20260508031157 23 0 0.0 0.0 0.00 0.00 0.00 60 1007.8
20260508025657 23 0 0.0 0.0 0.00 0.00 0.00 61 1007.9
20260508024157 23 0 0.0 0.0 0.00 0.00 0.00 60 1007.9
20260508022658 23 0 0.0 0.0 0.00 0.00 0.00 62 1008.1
20260508021156 22 0 0.0 0.0 0.00 0.00 0.00 64 1008.1
20260508015658 22 0 0.0 0.0 0.00 0.00 0.00 69 1008.3
20260508014157 22 0 0.0 0.0 0.00 0.00 0.00 71 1008.5
20260508012657 22 0 0.0 0.0 0.00 0.00 0.00 72 1008.5
20260508011156 23 0 0.0 0.0 0.00 0.00 0.00 67 1008.4
20260508005657 23 0 0.0 0.0 0.00 0.00 0.00 69 1008.3
20260508004156 23 0 0.0 0.0 0.00 0.00 0.00 69 1008.4
20260508002657 22 0 0.0 0.0 0.00 0.00 0.00 74 1008.6
20260508001156 22 0 0.0 0.0 0.00 0.00 0.00 76 1008.6
20260507235750 22 0 0.0 0.0 0.00 0.00 0.00 80 1008.7
20260507235657 22 0 0.0 0.0 0.00 0.00 0.00 80 1008.7
20260507234156 21 0 0.0 0.0 0.00 0.00 0.00 83 1008.7
20260507232656 21 0 0.0 0.0 0.00 0.00 0.00 82 1008.7
20260507231155 21 0 0.0 0.0 0.00 0.00 0.00 86 1009.0
20260507225657 20 0 0.0 0.0 0.00 0.00 0.00 90 1009.1
20260507224155 20 0 0.0 0.0 0.00 0.00 0.00 91 1009.3
20260507222656 20 0 0.0 0.0 0.00 0.00 0.00 92 1009.5
20260507221155 19 0 0.0 0.0 0.00 0.00 0.00 92 1009.4
20260507215656 18 0 0.0 0.0 0.00 0.00 0.00 92 1009.6
20260507214155 18 0 0.0 0.0 0.00 0.00 0.00 93 1009.2
20260507212734 18 0 0.0 0.0 0.00 0.00 0.00 92 1009.1
20260507212655 18 0 0.0 0.0 0.00 0.00 0.00 92 1009.1
20260507211155 18 0 0.0 0.0 0.00 0.00 0.00 92 1009.1
20260507205659 -17 0 0.0 0.0 0.00 0.00 0.00 1009.0
20260507205655 18 0 0.0 0.0 0.00 0.00 0.00 92 1009.0
20260507204154 18 0 0.0 0.0 0.00 0.00 0.00 92 1009.2
20260507202655 18 0 0.0 0.0 0.00 0.00 0.00 93 1009.1
20260507201154 18 0 0.0 0.0 0.00 0.00 0.00 92 1009.4
20260507195655 18 0 0.0 0.0 0.00 0.00 0.00 90 1009.0
20260507194153 18 0 0.0 0.0 0.00 0.00 0.00 90 1008.9
20260507192655 18 0 0.0 0.0 0.00 0.00 0.00 90 1009.2
20260507191153 18 0 0.0 0.0 0.00 0.00 0.00 89 1009.2
20260507185654 -17 0 0.0 0.0 0.00 0.00 0.00 1009.3
20260507184153 18 0 0.0 0.0 0.00 0.00 0.00 88 1009.2
20260507182654 18 0 0.0 0.0 0.00 0.00 0.00 88 1009.4
20260507181153 18 0 0.0 0.0 0.00 0.00 0.00 87 1009.3
20260507175731 18 0 0.0 0.0 0.00 0.00 0.00 87 1009.4
20260507175654 18 0 0.0 0.0 0.00 0.00 0.00 87 1009.4
20260507174153 18 0 0.0 0.0 0.00 0.00 0.00 87 1009.3
20260507172728 18 0 0.0 0.0 0.00 0.00 0.00 86 1009.4
20260507172654 18 0 0.0 0.0 0.00 0.00 0.00 86 1009.4
20260507171152 18 0 0.0 0.0 0.00 0.00 0.00 86 1009.5
20260507165654 18 0 0.0 0.0 0.00 0.00 0.00 86 1009.8
20260507164153 18 0 0.0 0.0 0.00 0.00 0.00 86 1009.8
20260507162726 18 0 0.0 0.0 0.00 0.00 0.00 84 1010.1
20260507162653 18 0 0.0 0.0 0.00 0.00 0.00 84 1010.1
20260507161152 18 0 0.0 0.0 0.00 0.00 0.00 85 1010.2
20260507155654 18 0 0.0 0.0 0.00 0.00 0.00 85 1010.3
20260507154152 18 0 0.0 0.0 0.00 0.00 0.00 85 1010.5
20260507152653 -17 0 0.0 0.0 0.00 0.00 0.00 1010.5
20260507151152 -17 0 0.0 0.0 0.00 0.00 0.00 1010.5
20260507145731 18 0 0.0 0.0 0.00 0.00 0.00 84 1010.7
20260507145657 18 0 0.0 0.0 0.00 0.00 0.00 84 1010.7
20260507145653 18 0 0.0 0.0 0.00 0.00 0.00 84 1010.6
20260507144152 18 0 0.0 0.0 0.00 0.00 0.00 83 1010.8
20260507142728 18 0 0.0 0.0 0.00 0.00 0.00 83 1010.8
20260507142652 18 0 0.0 0.0 0.00 0.00 0.00 83 1010.8
20260507141151 19 0 0.0 0.0 0.00 0.00 0.00 82 1010.9
20260507135732 19 0 0.0 0.0 0.00 0.00 0.00 81 1011.0
20260507135652 19 0 0.0 0.0 0.00 0.00 0.00 81 1011.0
20260507134151 19 0 0.0 0.0 0.00 0.00 0.00 81 1011.1
20260507132653 20 0 0.0 0.0 0.00 0.00 0.00 80 1011.1
20260507131151 20 0 0.0 0.0 0.00 0.00 0.00 81 1011.0
20260507125652 20 0 0.0 0.0 0.00 0.00 0.00 79 1011.0
20260507124151 20 0 0.0 0.0 0.00 0.00 0.00 79 1011.1
20260507122656 20 0 0.0 0.0 0.00 0.00 0.00 78 1011.1
20260507122652 20 0 0.0 0.0 0.00 0.00 0.00 78 1011.2
20260507121150 20 0 0.0 0.0 0.00 0.00 0.00 78 1011.2
20260507115651 20 0 0.0 0.0 0.00 0.00 0.00 77 1011.2
20260507114150 20 0 0.0 0.0 0.00 0.00 0.00 76 1011.0
20260507112726 20 0 0.0 0.0 0.00 0.00 0.00 75 1010.9
20260507112652 20 0 0.0 0.0 0.00 0.00 0.00 75 1010.9
20260507111150 21 0 0.0 0.0 0.00 0.00 0.00 75 1010.7
20260507105651 21 0 0.0 0.0 0.00 0.00 0.00 75 1010.6
20260507104150 21 0 0.0 0.0 0.00 0.00 0.00 73 1010.6
20260507102651 21 0 0.0 0.0 0.00 0.00 0.00 72 1010.6
20260507101149 21 0 0.0 0.0 0.00 0.00 0.00 70 1010.5